KOWB Airport (Owensboro-Daviess County Rgnl) Information

FAA: OWB - ICAO: KOWB

KOWB Airport Location

State Kentucky
County Daviess
City Owensboro
KOWB Airport is 3 miles southwest of Owensboro, KY.
Latitude 37-44-19.8030N
Longitude 087-10-00.5828W
Elevation 407ft

KOWB Airport METARs

METAR KOWB 262356Z 00000KT 10SM CLR 00/M06 A3018 RMK AO2 SLP226 T00001061 10033 20000 58004
Altimeter 30.18"
Temperature 0.0°C (32.0°F)
Wind 0° at 0KT
Clouds Skies are clear.
Visibility 10.0mi
Time observed: 2021-11-26T23:56:00Z

KOWB Airport Details

Status Operational
Activation December 1949
Ownership Public
Usage Public
Chart ST LOUIS
ATC on-site Yes
Beacon schedule sunset-sunrise
Beacon color clear green

KOWB Airport Contacts

Owner OWENSBORO CITY & DAVIESS COUNTY
Owner address 2200 AIRPORT ROAD, OWENSBORO, KY 42303
Owner phone 270-685-4179
Manager DANNY HILL
Manager address 709 AIRPORT ROAD, MT. STERLING, KY 40353
Manager phone 859-498-1000

KOWB Airport (Owensboro-Daviess County Rgnl) Radio Frequencies

KOWB (Airport) Radio Frequencies

UNICOM 122.95
Common traffic advisory frequency (CTAF) 120.7